| time (UTC) | temp F | wind direction | speed knots | gust knots | rain 1hr in | rain 24hr in | rain mn in | humidity % | barometer mb |
| 20260903032455 | 77 | 83 | 0.0 | 0.0 | 0.00 | 0.00 | 0.00 | ||
| 20260903031955 | 77 | 83 | 0.0 | 0.0 | 0.00 | 0.00 | 0.00 | ||
| 20260903031525 | 78 | 83 | 0.0 | 0.0 | 0.00 | 0.00 | 0.00 | ||
| 20260903031452 | 78 | 83 | 0.0 | 0.0 | 0.00 | 0.00 | 0.00 | ||
| 20260903030953 | 77 | 83 | 0.0 | 0.0 | 0.00 | 0.00 | 0.00 | ||
| 20260903030449 | 78 | 83 | 0.0 | 0.0 | 0.00 | 0.00 | 0.00 | ||
| 20260903030038 | 78 | 83 | 0.0 | 0.0 | 0.00 | 0.00 | 0.00 | ||
| 20260903025950 | 78 | 83 | 0.0 | 0.0 | 0.00 | 0.00 | 0.00 | ||
| 20260903025702 | 78 | 83 | 0.0 | 0.0 | 0.00 | 0.00 | 0.00 | ||
| 20260903025447 | 78 | 83 | 0.0 | 0.0 | 0.00 | 0.00 | 0.00 | ||
| 20260903024948 | 78 | 83 | 0.0 | 0.0 | 0.00 | 0.00 | 0.00 | ||
| 20260903024835 | 78 | 83 | 0.0 | 0.0 | 0.00 | 0.00 | 0.00 | ||
| 20260903024445 | 78 | 83 | 0.0 | 0.0 | 0.00 | 0.00 | 0.00 | ||
| 20260903023945 | 78 | 83 | 0.0 | 0.0 | 0.00 | 0.00 | 0.00 | ||
| 20260903023441 | 79 | 83 | 0.0 | 0.0 | 0.00 | 0.00 | 0.00 | ||
| 20260903022942 | 78 | 83 | 0.0 | 0.0 | 0.00 | 0.00 | 0.00 | ||
| 20260903022437 | 79 | 83 | 0.0 | 0.0 | 0.00 | 0.00 | 0.00 | ||
| 20260903021938 | 79 | 83 | 0.0 | 0.0 | 0.00 | 0.00 | 0.00 | ||
| 20260903021433 | 79 | 83 | 0.0 | 0.0 | 0.00 | 0.00 | 0.00 | ||
| 20260903020933 | 79 | 83 | 0.0 | 0.0 | 0.00 | 0.00 | 0.00 | ||
| 20260903020431 | 79 | 83 | 0.0 | 0.0 | 0.00 | 0.00 | 0.00 | ||
| 20260903015929 | 79 | 83 | 0.0 | 0.0 | 0.00 | 0.00 | 0.00 | ||
| 20260903015427 | 79 | 83 | 0.0 | 0.0 | 0.00 | 0.00 | 0.00 | ||
| 20260903014926 | 79 | 83 | 0.0 | 0.0 | 0.00 | 0.00 | 0.00 | ||
| 20260903014422 | 80 | 83 | 0.0 | 0.0 | 0.00 | 0.00 | 0.00 | ||
| 20260903013922 | 79 | 83 | 0.0 | 0.0 | 0.00 | 0.00 | 0.00 | ||
| 20260903013418 | 80 | 83 | 0.0 | 0.0 | 0.00 | 0.00 | 0.00 | ||
| 20260903012413 | 80 | 83 | 0.0 | 0.0 | 0.00 | 0.00 | 0.00 | ||
| 20260903011914 | 80 | 83 | 0.0 | 0.0 | 0.00 | 0.00 | 0.00 | ||
| 20260903011411 | 80 | 83 | 0.0 | 0.0 | 0.00 | 0.00 | 0.00 | ||
| 20260903011108 | 81 | 83 | 0.0 | 0.0 | 0.00 | 0.00 | 0.00 | ||
| 20260903010909 | 81 | 83 | 0.0 | 0.0 | 0.00 | 0.00 | 0.00 | ||
| 20260903010441 | 81 | 83 | 0.0 | 0.0 | 0.00 | 0.00 | 0.00 | ||
| 20260903010405 | 81 | 83 | 0.0 | 0.0 | 0.00 | 0.00 | 0.00 | ||
| 20260903010052 | 80 | 83 | 0.0 | 0.0 | 0.00 | 0.00 | 0.00 | ||
| 20260903005905 | 80 | 83 | 0.0 | 0.0 | 0.00 | 0.00 | 0.00 | ||
| 20260903005402 | 81 | 83 | 0.0 | 0.0 | 0.00 | 0.00 | 0.00 | ||
| 20260903004902 | 81 | 83 | 0.0 | 0.0 | 0.00 | 0.00 | 0.00 | ||
| 20260903004358 | 80 | 83 | 0.0 | 0.0 | 0.00 | 0.00 | 0.00 | ||
| 20260903003857 | 81 | 83 | 0.0 | 0.0 | 0.00 | 0.00 | 0.00 | ||
| 20260903003355 | 82 | 83 | 0.0 | 0.0 | 0.00 | 0.00 | 0.00 | ||
| 20260903002855 | 82 | 83 | 0.0 | 0.0 | 0.00 | 0.00 | 0.00 | ||
| 20260903002352 | 82 | 83 | 0.0 | 0.0 | 0.00 | 0.00 | 0.00 | ||
| 20260903001852 | 82 | 83 | 0.0 | 0.0 | 0.00 | 0.00 | 0.00 | ||
| 20260903001350 | 82 | 83 | 0.0 | 0.0 | 0.00 | 0.00 | 0.00 | ||
| 20260903000850 | 83 | 83 | 0.0 | 0.0 | 0.00 | 0.00 | 0.00 | ||
| 20260903000347 | 83 | 83 | 0.0 | 0.0 | 0.00 | 0.00 | 0.00 | ||
| 20260902235853 | 83 | 83 | 0.0 | 0.0 | 0.00 | 0.00 | 0.00 | ||
| 20260902235345 | 83 | 83 | 0.0 | 0.0 | 0.00 | 0.00 | 0.00 | ||
| 20260902234846 | 84 | 83 | 0.0 | 0.0 | 0.00 | 0.00 | 0.00 | ||
| 20260902234341 | 85 | 83 | 0.0 | 0.0 | 0.00 | 0.00 | 0.00 | ||
| 20260902233841 | 85 | 63 | 0.0 | 0.0 | 0.00 | 0.00 | 0.00 | ||
| 20260902233335 | 85 | 51 | 0.0 | 0.0 | 0.00 | 0.00 | 0.00 | ||
| 20260902232836 | 85 | 79 | 1.7 | 1.7 | 0.00 | 0.00 | 0.00 | ||
| 20260902232332 | 85 | 63 | 0.9 | 0.9 | 0.00 | 0.00 | 0.00 | ||
| 20260902231833 | 85 | 38 | 0.0 | 0.0 | 0.00 | 0.00 | 0.00 | ||
| 20260902231331 | 85 | 62 | 0.0 | 0.9 | 0.00 | 0.00 | 0.00 | ||
| 20260902230832 | 86 | 53 | 0.0 | 0.0 | 0.00 | 0.00 | 0.00 | ||
| 20260902230328 | 86 | 58 | 0.0 | 0.0 | 0.00 | 0.00 | 0.00 | ||
| 20260902225829 | 87 | 58 | 0.0 | 0.0 | 0.00 | 0.00 | 0.00 | ||
| 20260902225326 | 87 | 63 | 0.0 | 0.0 | 0.00 | 0.00 | 0.00 | ||
| 20260902224826 | 87 | 72 | 0.9 | 0.9 | 0.00 | 0.00 | 0.00 | ||
| 20260902224324 | 87 | 73 | 1.7 | 0.9 | 0.00 | 0.00 | 0.00 | ||
| 20260902223825 | 87 | 87 | 0.9 | 2.6 | 0.00 | 0.00 | 0.00 | ||
| 20260902223322 | 87 | 149 | 2.6 | 1.7 | 0.00 | 0.00 | 0.00 | ||
| 20260902222823 | 87 | 127 | 0.0 | 2.6 | 0.00 | 0.00 | 0.00 | ||
| 20260902222319 | 87 | 135 | 1.7 | 3.5 | 0.00 | 0.00 | 0.00 | ||
| 20260902221820 | 88 | 115 | 1.7 | 0.9 | 0.00 | 0.00 | 0.00 | ||
| 20260902221318 | 88 | 98 | 0.9 | 0.9 | 0.00 | 0.00 | 0.00 | ||
| 20260902220819 | 88 | 314 | 1.7 | 1.7 | 0.00 | 0.00 | 0.00 | ||
| 20260902220315 | 88 | 121 | 0.0 | 0.0 | 0.00 | 0.00 | 0.00 | ||
| 20260902215816 | 89 | 117 | 0.9 | 0.0 | 0.00 | 0.00 | 0.00 | ||
| 20260902215313 | 89 | 129 | 1.7 | 3.5 | 0.00 | 0.00 | 0.00 | ||
| 20260902214813 | 89 | 122 | 0.9 | 1.7 | 0.00 | 0.00 | 0.00 | ||
| 20260902213812 | 89 | 128 | 3.5 | 1.7 | 0.00 | 0.00 | 0.00 | ||
| 20260902213308 | 89 | 143 | 3.5 | 5.2 | 0.00 | 0.00 | 0.00 | ||
| 20260902212808 | 89 | 125 | 5.2 | 5.2 | 0.00 | 0.00 | 0.00 | ||
| 20260902212306 | 90 | 129 | 3.5 | 5.2 | 0.00 | 0.00 | 0.00 | ||
| 20260902211803 | 89 | 111 | 5.2 | 6.1 | 0.00 | 0.00 | 0.00 | ||
| 20260902211300 | 89 | 132 | 4.3 | 1.7 | 0.00 | 0.00 | 0.00 | ||
| 20260902210257 | 90 | 134 | 3.5 | 1.7 | 0.00 | 0.00 | 0.00 | ||
| 20260902205757 | 90 | 153 | 3.5 | 6.1 | 0.00 | 0.00 | 0.00 | ||
| 20260902205253 | 90 | 125 | 4.3 | 1.7 | 0.00 | 0.00 | 0.00 | ||
| 20260902204754 | 91 | 108 | 4.3 | 2.6 | 0.00 | 0.00 | 0.00 | ||
| 20260902204251 | 91 | 120 | 3.5 | 5.2 | 0.00 | 0.00 | 0.00 | ||
| 20260902203249 | 91 | 136 | 2.6 | 3.5 | 0.00 | 0.00 | 0.00 | ||
| 20260902202750 | 90 | 135 | 3.5 | 5.2 | 0.00 | 0.00 | 0.00 | ||
| 20260902202246 | 91 | 131 | 5.2 | 3.5 | 0.00 | 0.00 | 0.00 | ||
| 20260902201747 | 91 | 145 | 3.5 | 6.1 | 0.00 | 0.00 | 0.00 | ||
| 20260902201243 | 91 | 170 | 3.5 | 1.7 | 0.00 | 0.00 | 0.00 | ||
| 20260902200743 | 90 | 122 | 4.3 | 2.6 | 0.00 | 0.00 | 0.00 | ||
| 20260902200239 | 91 | 131 | 2.6 | 4.3 | 0.00 | 0.00 | 0.00 | ||
| 20260902195740 | 91 | 68 | 4.3 | 7.8 | 0.00 | 0.00 | 0.00 | ||
| 20260902195237 | 91 | 153 | 1.7 | 1.7 | 0.00 | 0.00 | 0.00 | ||
| 20260902194235 | 90 | 114 | 5.2 | 7.8 | 0.00 | 0.00 | 0.00 | ||
| 20260902193735 | 91 | 152 | 3.5 | 5.2 | 0.00 | 0.00 | 0.00 | ||
| 20260902193231 | 92 | 150 | 3.5 | 4.3 | 0.00 | 0.00 | 0.00 | ||
| 20260902192731 | 91 | 139 | 5.2 | 4.3 | 0.00 | 0.00 | 0.00 | ||
| 20260902192229 | 91 | 120 | 4.3 | 4.3 | 0.00 | 0.00 | 0.00 | ||
| 20260902191730 | 92 | 136 | 5.2 | 4.3 | 0.00 | 0.00 | 0.00 | ||
| 20260902191228 | 92 | 117 | 4.3 | 6.1 | 0.00 | 0.00 | 0.00 | ||
| 20260902190729 | 93 | 149 | 5.2 | 5.2 | 0.00 | 0.00 | 0.00 | ||
| 20260902190227 | 92 | 134 | 0.9 | 1.7 | 0.00 | 0.00 | 0.00 | ||
| 20260902184727 | 93 | 215 | 0.9 | 0.0 | 0.00 | 0.00 | 0.00 | ||
| 20260902184220 | 92 | 139 | 2.6 | 3.5 | 0.00 | 0.00 | 0.00 | ||
| 20260902183720 | 92 | 153 | 2.6 | 2.6 | 0.00 | 0.00 | 0.00 | ||
| 20260902183217 | 93 | 110 | 1.7 | 1.7 | 0.00 | 0.00 | 0.00 | ||
| 20260902182216 | 92 | 56 | 0.0 | 0.0 | 0.00 | 0.00 | 0.00 | ||
| 20260902181215 | 92 | 104 | 1.7 | 1.7 | 0.00 | 0.00 | 0.00 | ||
| 20260902180716 | 92 | 83 | 2.6 | 1.7 | 0.00 | 0.00 | 0.00 | ||
| 20260902180214 | 92 | 152 | 0.0 | 0.0 | 0.00 | 0.00 | 0.00 | ||
| 20260902175715 | 92 | 100 | 0.0 | 0.0 | 0.00 | 0.00 | 0.00 | ||
| 20260902174714 | 92 | 86 | 2.6 | 2.6 | 0.00 | 0.00 | 0.00 | ||
| 20260902174212 | 90 | 89 | 3.5 | 1.7 | 0.00 | 0.00 | 0.00 | ||
| 20260902173713 | 91 | 166 | 4.3 | 3.5 | 0.00 | 0.00 | 0.00 | ||
| 20260902172712 | 92 | 149 | 4.3 | 5.2 | 0.00 | 0.00 | 0.00 | ||
| 20260902172210 | 92 | 93 | 0.0 | 0.9 | 0.00 | 0.00 | 0.00 | ||
| 20260902171209 | 92 | 24 | 0.0 | 0.0 | 0.00 | 0.00 | 0.00 | ||
| 20260902170708 | 93 | 346 | 0.0 | 0.0 | 0.00 | 0.00 | 0.00 | ||
| 20260902170206 | 92 | 97 | 1.7 | 4.3 | 0.00 | 0.00 | 0.00 | ||
| 20260902165205 | 92 | 82 | 0.0 | 0.0 | 0.00 | 0.00 | 0.00 | ||
| 20260902164706 | 91 | 82 | 0.0 | 0.0 | 0.00 | 0.00 | 0.00 | ||
| 20260902164204 | 92 | 79 | 0.0 | 0.0 | 0.00 | 0.00 | 0.00 | ||
| 20260902163705 | 91 | 93 | 2.6 | 1.7 | 0.00 | 0.00 | 0.00 | ||
| 20260902163203 | 91 | 84 | 1.7 | 2.6 | 0.00 | 0.00 | 0.00 | ||
| 20260902162704 | 91 | 84 | 2.6 | 2.6 | 0.00 | 0.00 | 0.00 | ||
| 20260902162202 | 91 | 104 | 1.7 | 1.7 | 0.00 | 0.00 | 0.00 | ||
| 20260902161703 | 91 | 93 | 2.6 | 1.7 | 0.00 | 0.00 | 0.00 | ||
| 20260902160701 | 91 | 245 | 0.0 | 0.0 | 0.00 | 0.00 | 0.00 | ||
| 20260902160159 | 91 | 322 | 0.0 | 0.0 | 0.00 | 0.00 | 0.00 | ||
| 20260902155659 | 91 | 80 | 1.7 | 1.7 | 0.00 | 0.00 | 0.00 | ||
| 20260902155157 | 90 | 77 | 0.9 | 0.9 | 0.00 | 0.00 | 0.00 | ||
| 20260902154658 | 90 | 122 | 0.0 | 2.6 | 0.00 | 0.00 | 0.00 | ||
| 20260902154156 | 90 | 124 | 2.6 | 1.7 | 0.00 | 0.00 | 0.00 | ||
| 20260902153657 | 90 | 17 | 0.9 | 0.0 | 0.00 | 0.00 | 0.00 | ||
| 20260902153154 | 89 | 48 | 1.7 | 0.0 | 0.00 | 0.00 | 0.00 | ||
| 20260902152655 | 88 | 117 | 2.6 | 1.7 | 0.00 | 0.00 | 0.00 | ||
| 20260902152151 | 88 | 105 | 1.7 | 0.9 | 0.00 | 0.00 | 0.00 | ||
| 20260902151653 | 87 | 69 | 1.7 | 0.0 | 0.00 | 0.00 | 0.00 | ||
| 20260902145746 | 87 | 62 | 0.0 | 0.0 | 0.00 | 0.01 | 0.00 | ||
| 20260902145247 | 86 | 70 | 0.0 | 0.0 | 0.00 | 0.01 | 0.00 | ||
| 20260902144744 | 86 | 131 | 1.7 | 2.6 | 0.00 | 0.01 | 0.00 | ||
| 20260902144245 | 86 | 72 | 0.0 | 0.0 | 0.00 | 0.01 | 0.00 | ||
| 20260902143744 | 85 | 72 | 0.0 | 0.0 | 0.00 | 0.01 | 0.00 | ||
| 20260902143244 | 85 | 90 | 1.7 | 1.7 | 0.00 | 0.01 | 0.00 | ||
| 20260902142742 | 85 | 52 | 0.0 | 0.0 | 0.00 | 0.01 | 0.00 | ||
| 20260902142243 | 84 | 52 | 0.9 | 0.0 | 0.00 | 0.01 | 0.00 | ||
| 20260902141739 | 83 | 4 | 0.0 | 0.0 | 0.00 | 0.01 | 0.00 | ||
| 20260902141240 | 83 | 4 | 0.0 | 0.0 | 0.00 | 0.01 | 0.00 | ||
| 20260902140239 | 83 | 23 | 0.0 | 0.0 | 0.00 | 0.01 | 0.00 | ||
| 20260902135735 | 82 | 94 | 0.0 | 0.0 | 0.00 | 0.01 | 0.00 | ||
| 20260902135236 | 82 | 94 | 0.0 | 0.0 | 0.00 | 0.01 | 0.00 | ||
| 20260902134733 | 82 | 115 | 0.0 | 0.0 | 0.00 | 0.01 | 0.00 | ||
| 20260902134234 | 81 | 115 | 0.0 | 0.0 | 0.00 | 0.01 | 0.00 | ||
| 20260902133731 | 81 | 115 | 0.0 | 0.0 | 0.00 | 0.01 | 0.00 | ||
| 20260902133232 | 81 | 115 | 0.0 | 0.0 | 0.00 | 0.01 | 0.00 | ||
| 20260902132729 | 81 | 138 | 0.0 | 0.0 | 0.00 | 0.01 | 0.00 | ||
| 20260902132230 | 80 | 214 | 0.0 | 0.0 | 0.00 | 0.01 | 0.00 | ||
| 20260902131727 | 80 | 214 | 0.0 | 0.0 | 0.00 | 0.01 | 0.00 | ||
| 20260902131228 | 80 | 214 | 0.0 | 0.0 | 0.00 | 0.01 | 0.00 | ||
| 20260902125320 | 79 | 214 | 0.0 | 0.0 | 0.00 | 0.01 | 0.00 | ||
| 20260902125240 | 79 | 214 | 0.0 | 0.0 | 0.00 | 0.01 | 0.00 | ||
| 20260902124717 | 79 | 214 | 0.0 | 0.0 | 0.00 | 0.01 | 0.00 | ||
| 20260902124216 | 78 | 214 | 0.0 | 0.0 | 0.00 | 0.01 | 0.00 | ||
| 20260902122703 | 78 | 214 | 0.0 | 0.0 | 0.00 | 0.01 | 0.00 | ||
| 20260902115152 | 76 | 214 | 0.0 | 0.0 | 0.00 | 0.01 | 0.00 | ||
| 20260902115015 | 76 | 214 | 0.0 | 0.0 | 0.00 | 0.01 | 0.00 | ||
| 20260902114649 | 76 | 214 | 0.0 | 0.0 | 0.00 | 0.01 | 0.00 | ||
| 20260902114512 | 75 | 214 | 0.0 | 0.0 | 0.00 | 0.01 | 0.00 | ||
| 20260902114247 | 75 | 214 | 0.0 | 0.0 | 0.00 | 0.01 | 0.00 | ||
| 20260902114150 | 75 | 214 | 0.0 | 0.0 | 0.00 | 0.01 | 0.00 | ||
| 20260902113643 | 75 | 214 | 0.0 | 0.0 | 0.00 | 0.01 | 0.00 | ||
| 20260902112640 | 74 | 214 | 0.0 | 0.0 | 0.00 | 0.01 | 0.00 | ||
| 20260902112459 | 74 | 214 | 0.0 | 0.0 | 0.00 | 0.01 | 0.00 | ||
| 20260902112329 | 74 | 214 | 0.0 | 0.0 | 0.00 | 0.01 | 0.00 | ||
| 20260902111636 | 74 | 214 | 0.0 | 0.0 | 0.00 | 0.01 | 0.00 | ||
| 20260902110250 | 74 | 214 | 0.0 | 0.0 | 0.00 | 0.01 | 0.00 | ||
| 20260902110215 | 74 | 214 | 0.0 | 0.0 | 0.00 | 0.01 | 0.00 | ||
| 20260902110134 | 74 | 214 | 0.0 | 0.0 | 0.00 | 0.01 | 0.00 | ||
| 20260902103914 | 75 | 214 | 0.0 | 0.0 | 0.00 | 0.01 | 0.00 | ||
| 20260902103746 | 75 | 214 | 0.0 | 0.0 | 0.00 | 0.01 | 0.00 | ||
| 20260902103711 | 75 | 214 | 0.0 | 0.0 | 0.00 | 0.01 | 0.00 | ||
| 20260902103624 | 75 | 214 | 0.0 | 0.0 | 0.00 | 0.01 | 0.00 | ||
| 20260902103337 | 75 | 214 | 0.0 | 0.0 | 0.00 | 0.01 | 0.00 | ||
| 20260902103100 | 75 | 214 | 0.0 | 0.0 | 0.00 | 0.01 | 0.00 | ||
| 20260902103023 | 75 | 214 | 0.0 | 0.0 | 0.00 | 0.01 | 0.00 | ||
| 20260902102119 | 74 | 214 | 0.0 | 0.0 | 0.00 | 0.01 | 0.00 | ||
| 20260902101730 | 75 | 214 | 0.0 | 0.0 | 0.00 | 0.01 | 0.00 | ||
| 20260902101648 | 75 | 214 | 0.0 | 0.0 | 0.00 | 0.01 | 0.00 | ||
| 20260902101614 | 75 | 214 | 0.0 | 0.0 | 0.00 | 0.01 | 0.00 | ||
| 20260902101115 | 74 | 214 | 0.0 | 0.0 | 0.00 | 0.01 | 0.00 | ||
| 20260902101015 | 75 | 214 | 0.0 | 0.0 | 0.00 | 0.01 | 0.00 | ||
| 20260902101013 | 75 | 214 | 0.0 | 0.0 | 0.00 | 0.01 | 0.00 | ||
| 20260902100834 | 75 | 214 | 0.0 | 0.0 | 0.00 | 0.01 | 0.00 | ||
| 20260902100738 | 75 | 214 | 0.0 | 0.0 | 0.00 | 0.01 | 0.00 | ||
| 20260902100642 | 75 | 214 | 0.0 | 0.0 | 0.00 | 0.01 | 0.00 | ||
| 20260902100611 | 75 | 214 | 0.0 | 0.0 | 0.00 | 0.01 | 0.00 | ||
| 20260902100314 | 75 | 214 | 0.0 | 0.0 | 0.00 | 0.01 | 0.00 | ||
| 20260902100242 | 75 | 214 | 0.0 | 0.0 | 0.00 | 0.01 | 0.00 | ||
| 20260902100111 | 75 | 214 | 0.0 | 0.0 | 0.00 | 0.01 | 0.00 | ||
| 20260902094833 | 75 | 214 | 0.0 | 0.0 | 0.00 | 0.01 | 0.00 | ||
| 20260902094808 | 76 | 214 | 0.0 | 0.0 | 0.00 | 0.01 | 0.00 | ||
| 20260902094746 | 75 | 214 | 0.0 | 0.0 | 0.00 | 0.01 | 0.00 | ||
| 20260902094737 | 76 | 214 | 0.0 | 0.0 | 0.00 | 0.01 | 0.00 | ||
| 20260902094059 | 75 | 214 | 0.0 | 0.0 | 0.00 | 0.01 | 0.00 | ||
| 20260902093134 | 76 | 214 | 0.0 | 0.0 | 0.00 | 0.01 | 0.00 | ||
| 20260902093057 | 76 | 214 | 0.0 | 0.0 | 0.00 | 0.01 | 0.00 | ||
| 20260902091552 | 75 | 214 | 0.0 | 0.0 | 0.00 | 0.01 | 0.00 | ||
| 20260902083721 | 75 | 214 | 0.0 | 0.0 | 0.00 | 0.01 | 0.00 | ||
| 20260902083646 | 75 | 214 | 0.0 | 0.0 | 0.00 | 0.01 | 0.00 | ||
| 20260902083541 | 75 | 214 | 0.0 | 0.0 | 0.00 | 0.01 | 0.00 | ||
| 20260902083436 | 75 | 214 | 0.0 | 0.0 | 0.00 | 0.01 | 0.00 | ||
| 20260902083256 | 75 | 214 | 0.0 | 0.0 | 0.00 | 0.01 | 0.00 | ||
| 20260902082607 | 75 | 214 | 0.0 | 0.0 | 0.00 | 0.01 | 0.00 | ||
| 20260902082535 | 75 | 214 | 0.0 | 0.0 | 0.00 | 0.01 | 0.00 | ||
| 20260902081458 | 75 | 214 | 0.0 | 0.0 | 0.00 | 0.01 | 0.00 | ||
| 20260902081331 | 75 | 214 | 0.0 | 0.0 | 0.00 | 0.01 | 0.00 | ||
| 20260902081108 | 75 | 214 | 0.0 | 0.0 | 0.00 | 0.01 | 0.00 | ||
| 20260902081033 | 75 | 214 | 0.0 | 0.0 | 0.00 | 0.01 | 0.00 | ||
| 20260902080246 | 76 | 214 | 0.0 | 0.0 | 0.00 | 0.01 | 0.00 | ||
| 20260902080115 | 76 | 214 | 0.0 | 0.0 | 0.00 | 0.01 | 0.00 | ||
| 20260902080031 | 76 | 214 | 0.0 | 0.0 | 0.00 | 0.01 | 0.00 | ||
| 20260902074524 | 75 | 214 | 0.0 | 0.0 | 0.00 | 0.01 | 0.00 | ||
| 20260902073520 | 76 | 214 | 0.0 | 0.0 | 0.00 | 0.01 | 0.00 | ||
| 20260902072516 | 76 | 214 | 0.0 | 0.0 | 0.00 | 0.01 | 0.00 | ||
| 20260902071511 | 76 | 214 | 0.0 | 0.0 | 0.00 | 0.01 | 0.00 | ||
| 20260902071218 | 76 | 214 | 0.0 | 0.0 | 0.00 | 0.01 | 0.00 | ||
| 20260902071049 | 76 | 214 | 0.0 | 0.0 | 0.00 | 0.01 | 0.00 | ||
| 20260902071011 | 76 | 214 | 0.0 | 0.0 | 0.00 | 0.01 | 0.00 | ||
| 20260902065321 | 75 | 214 | 0.0 | 0.0 | 0.00 | 0.01 | 0.00 | ||
| 20260902065011 | 75 | 214 | 0.0 | 0.0 | 0.00 | 0.01 | 0.00 | ||
| 20260902064511 | 76 | 214 | 0.0 | 0.0 | 0.00 | 0.01 | 0.00 | ||
| 20260902064006 | 76 | 214 | 0.0 | 0.0 | 0.00 | 0.01 | 0.00 | ||
| 20260902063552 | 76 | 214 | 0.0 | 0.0 | 0.00 | 0.00 | 0.01 | ||
| 20260902063519 | 76 | 214 | 0.0 | 0.0 | 0.00 | 0.00 | 0.01 | ||
| 20260902063005 | 76 | 214 | 0.0 | 0.0 | 0.00 | 0.00 | 0.01 | ||
| 20260902062042 | 76 | 214 | 0.0 | 0.0 | 0.00 | 0.00 | 0.01 | ||
| 20260902062004 | 76 | 214 | 0.0 | 0.0 | 0.00 | 0.00 | 0.01 | ||
| 20260902061458 | 76 | 214 | 0.0 | 0.0 | 0.00 | 0.00 | 0.01 | ||
| 20260902060503 | 75 | 214 | 0.0 | 0.0 | 0.00 | 0.00 | 0.01 | ||
| 20260902055958 | 76 | 214 | 0.0 | 0.0 | 0.00 | 0.00 | 0.01 | ||
| 20260902055454 | 76 | 214 | 0.0 | 0.0 | 0.00 | 0.00 | 0.01 | ||
| 20260902055037 | 76 | 214 | 0.0 | 0.0 | 0.00 | 0.00 | 0.01 | ||
| 20260902054955 | 76 | 214 | 0.0 | 0.0 | 0.00 | 0.00 | 0.01 | ||
| 20260902054451 | 76 | 214 | 0.0 | 0.0 | 0.00 | 0.00 | 0.01 | ||
| 20260902053952 | 76 | 214 | 0.0 | 0.0 | 0.00 | 0.00 | 0.01 | ||
| 20260902053450 | 76 | 214 | 0.0 | 0.0 | 0.00 | 0.00 | 0.01 | ||
| 20260902053324 | 76 | 214 | 0.0 | 0.0 | 0.00 | 0.00 | 0.01 | ||
| 20260902053214 | 76 | 214 | 0.0 | 0.0 | 0.00 | 0.00 | 0.01 | ||
| 20260902052950 | 76 | 214 | 0.0 | 0.0 | 0.00 | 0.00 | 0.01 | ||
| 20260902052446 | 77 | 214 | 0.0 | 0.0 | 0.00 | 0.00 | 0.01 | ||
| 20260902051946 | 77 | 214 | 0.0 | 0.0 | 0.00 | 0.00 | 0.01 | ||
| 20260902051444 | 76 | 214 | 0.0 | 0.0 | 0.00 | 0.00 | 0.01 | ||
| 20260902051026 | 77 | 214 | 0.0 | 0.0 | 0.00 | 0.00 | 0.01 | ||
| 20260902050945 | 77 | 214 | 0.0 | 0.0 | 0.00 | 0.00 | 0.01 | ||
| 20260902050736 | 76 | 214 | 0.0 | 0.0 | 0.00 | 0.00 | 0.01 | ||
| 20260902050704 | 76 | 214 | 0.0 | 0.0 | 0.00 | 0.00 | 0.01 | ||
| 20260902045943 | 76 | 214 | 0.0 | 0.0 | 0.00 | 0.00 | 0.01 | ||
| 20260902045441 | 76 | 214 | 0.0 | 0.0 | 0.00 | 0.00 | 0.01 | ||
| 20260902044944 | 77 | 214 | 0.0 | 0.0 | 0.00 | 0.00 | 0.01 | ||
| 20260902044527 | 77 | 214 | 0.0 | 0.0 | 0.00 | 0.00 | 0.01 | ||
| 20260902044523 | 76 | 214 | 0.0 | 0.0 | 0.00 | 0.00 | 0.01 | ||
| 20260902044438 | 77 | 214 | 0.0 | 0.0 | 0.00 | 0.00 | 0.01 | ||
| 20260902043939 | 77 | 214 | 0.0 | 0.0 | 0.00 | 0.00 | 0.01 | ||
| 20260902042937 | 76 | 214 | 0.0 | 0.0 | 0.00 | 0.00 | 0.01 | ||
| 20260902042433 | 77 | 214 | 0.0 | 0.0 | 0.00 | 0.00 | 0.01 | ||
| 20260902041432 | 77 | 214 | 0.0 | 0.0 | 0.00 | 0.00 | 0.01 | ||
| 20260902035931 | 78 | 214 | 0.0 | 0.0 | 0.00 | 0.00 | 0.01 | ||
| 20260902034930 | 77 | 214 | 0.0 | 0.0 | 0.00 | 0.00 | 0.01 | ||
| 20260902034427 | 77 | 214 | 0.0 | 0.0 | 0.00 | 0.00 | 0.01 | ||
| 20260902033928 | 78 | 214 | 0.0 | 0.0 | 0.00 | 0.00 | 0.01 | ||
| 20260902033504 | 78 | 214 | 0.0 | 0.0 | 0.00 | 0.00 | 0.01 | ||
| 20260902033425 | 78 | 214 | 0.0 | 0.0 | 0.00 | 0.00 | 0.01 | ||
| 20260902032926 | 78 | 214 | 0.0 | 0.0 | 0.00 | 0.00 | 0.01 |